Showing default

SARAL, 39086

Orbit data source: Space-Track

SARAL, 39086 is an Indian payload satellite in SSO that was launched on Mon, 25 Feb 2013 UTC via a PSLV launch vehicle from the Sirharikota (SRI). Payload-class satellites include a variety of spacecraft equipped with specific instruments for various scientific and technological missions. These include communications satellites like Starlink; space stations such as the ISS; scientific satellites like the Hubble; Earth observation satellites from companies like Planet Labs, Umbra, and HawkEye 360; GPS; miniature CubeSats for education and research; and military/defense satellites.

Loading next visibility...
Identifier
39086, 2013-009A
Orbit
SSO
Country
Flag of ININ / IND
Related business
Manufacturer
ISRO SAC/Banga
Mission
Operational Civil Science
Bus & Motor
SSB-2, AOCS
Mass
409 kg wet, 409 kg dry
Launch date (UTC)
2013-02-25 (13 years ago)
Launch vehicle
PSLV
Launch site
Sirharikota (SRI)
Object type
Payload
Rocket body
Debris
Shape & HBR
Box + 2 Pan, 2.0 m
Radar Cross Section
4.015 m², Large (>1 m²)

Expand to show TLE details & history
Last TLE update: 11 hours ago

TLE from 11 hours ago
0 SARAL
1 39086U 13009A   26094.92771993  .00000153  00000-0  72194-4 0  9993
2 39086  98.5564 282.4171 0002734 122.2273 237.9176 14.32837770685113
Epoch: 2026-04-04T22:15Z
TLE epoch observation values (Epoch: 2026-04-04T22:15:55.001Z)
Latitude
-0.00009°
Longitude
115.19747°
Altitude
786.238 km
Speed
7.46 km/s
True Right ascension
18h 49m 40s
True Declination
0° 00' 00"
Sunlit
Object was in daylight at epoch
Visualization orbit readout
Latitude
Unknown
Longitude
Unknown
Altitude
Unknown
Speed
Unknown
Apparent Right ascension
Unknown
Apparent Declination
Unknown
Sunlit
N/A
Visualization observer readout
Local Sidereal Time
15:00:50
Azimuth
Unknown
Elevation
Unknown
Doppler factor
Unknown
Orbital elements
Apogee altitude
781.352 km
Perigee altitude
777.438 km
Semi-major axis
7,157.532 km
Eccentricity
0.00027
Inclination
98.5564°
RAAN
282.4171°
Arg. of periapsis
122.2273°
True anomaly
237.89106°
Mean anomaly
237.9176°
Eccentric anomaly
237.90433°
Mean motion
3.58425 °/min
Orbital period
100.44 mins
BSTAR
0.000072194
Loading maneuver chart data...
Computing Atmospheric mass density...
Loading historical data...
Loading historical data...
Loading historical data...
Loading historical data...
Loading historical data...
Loading historical data...
Loading historical data...

Documentation

Showing up to 5 results
|